Regional Weather Roundup
Issued by NWS Wilmington, NC

Home | Current Version | Previous Version | Text Only | Print | Product List | Glossary On
Versions: 1 2 3 4 5 6 7 8 9 10 11 12 13 14 15 16 17 18 19 20 21 22 23 24 25 26 27 28 29 30 31 32 33 34 35 36 37 38 39 40 41 42 43 44 45 46 47 48 49 50
000
ASUS42 KILM 190810
RWRILM
RWRILM
REGIONAL HOURLY WEATHER ROUNDUP
NATIONAL WEATHER SERVICE WILMINGTON NC
400 AM EDT FRI SEP 19 2014

NOTE: "FAIR" INDICATES FEW OR NO CLOUDS BELOW 12,000 FEET WITH NO
SIGNIFICANT WEATHER AND/OR OBSTRUCTIONS TO VISIBILITY.

...............WFO WILMINGTON COUNTY WARNING AREA...............

......COASTAL NC AND SC COUNTIES......

CITY           SKY/WX    TMP DP  RH WIND       PRES   REMARKS
WILMINGTON     MOCLDY    66  62  87 NE8       30.04R
SOUTHPORT      MOCLDY    72  59  64 NE3       30.02S
N MYRTLE BEACH PTCLDY    68  63  84 NE5       30.02R
MYRTLE BEACH   MOCLDY    79  64  61 E13G20    30.01S

......INLAND NC AND SC COUNTIES.......

CITY           SKY/WX    TMP DP  RH WIND       PRES   REMARKS
LUMBERTON      MOCLDY    67  61  81 NE6       30.05R
ELIZABETHTOWN  MOCLDY    64  60  86 CALM      30.06R
WHITEVILLE     PTCLDY    65  61  86 NE5       30.04R
FLORENCE       MOCLDY    67  63  87 E5        30.03S
DARLINGTON     CLOUDY    66  63  88 NE5       30.06R

....................REST OF NORTH CAROLINA......................

.........EASTERN NC.........

CITY           SKY/WX    TMP DP  RH WIND       PRES   REMARKS
CAPE HATTERAS  PTCLDY    68  62  81 NE6       30.06F
JACKSONVILLE   MOCLDY    63  57  82 NE8       30.06S
MOREHEAD CITY  MOCLDY    68  62  81 NE6       30.06S
KENANSVILLE    CLOUDY    61  61 100 CALM      30.08R
NEW BERN       MOCLDY    67  60  78 NE7       30.08S
ELIZABETH CITY CLEAR     61  58  90 NW5       30.10R

.........CENTRAL NC.........

CITY           SKY/WX    TMP DP  RH WIND       PRES   REMARKS
RALEIGH DURHAM MOCLDY    64  59  83 CALM      30.10R
ROCKY MOUNT    MOCLDY    60  57  89 CALM      30.09S
ROANOKE RAPIDS NOT AVBL
FAYETTEVILLE   CLOUDY    65  60  84 E3        30.06S
HOFFMAN        NOT AVBL

.........WESTERN NC.........

CITY           SKY/WX    TMP DP  RH WIND       PRES   REMARKS
CHARLOTTE      LGT RAIN  67  64  90 SE10      30.07S
GREENSBORO     CLOUDY    68  62  81 SE5       30.09R
HICKORY        NOT AVBL
BOONE          NOT AVBL
ASHEVILLE      NOT AVBL

.....................REST OF SOUTH CAROLINA.....................

.........EASTERN SC.........

CITY           SKY/WX    TMP DP  RH WIND       PRES   REMARKS
CHARLESTON     MOCLDY    72  69  90 NE6       29.99R
BEAUFORT MCAS  PTCLDY    72  70  93 SW5       29.98R
HILTON HEAD    NOT AVBL

.........CENTRAL SC.........

CITY           SKY/WX    TMP DP  RH WIND       PRES   REMARKS
COLUMBIA       MOCLDY    71  68  90 E3        30.01S
ORANGEBURG     CLOUDY    70  68  93 NE5       30.00F
SUMTER SHAW    PTCLDY    67  64  87 E6        30.01S

.........WESTERN SC.........

CITY           SKY/WX    TMP DP  RH WIND       PRES   REMARKS
GREENVILLE     NOT AVBL
ROCK HILL      CLOUDY    66  65  96 E3        30.07R
ANDERSON       CLOUDY    70  65  84 NE7       30.04S
CLEMSON        NOT AVBL
GREENWOOD      MOCLDY    67  65  93 N3        30.04F


...................COASTAL AND OFFSHORE REPORTS..................

................LOCAL PIERS AND NC RESERVE................


STATION/POSITION TIME  SKY/WX   TEMP    WIND        PRES    VSBY
                                AIR SEA DIR/SP/G
                 (UTC)          (F)     (DEG/KT/KT) (MB)    (MI)
JOHNY MRCER PIER 0800            77 81   70/ 17/ 21 1016.3S
NC RESRV MASNBRO 0700            73      20/  6     1016.0S
OCEAN CREST PIER 0800            72 81   10/  6/  7 1015.6S
SPRINGMAID  PIER 0800            79 81   70/ 16/ 19 1016.3R


................COASTAL AND OFFSHORE BUOYS................


STATION/POSITION TIME  SKY/WX   TEMP    WIND        PRES    VSBY
                                AIR SEA DIR/SP/G
                 (UTC)          (F)     (DEG/KT/KT) (MB)    (MI)
DIMNDSHOAL 41025 0800            74      30/ 16/ 23 1016.9F
WVE H/P(F/S)=  5/ 6 WND WVE H/P(F/S)=  3/ 6 SWL H/P/D(F/S/D)=  3/ 60/ 8

CAPE LOOKOUT     0700            75      60/ 15/ 16 1017.3S
ONSLOW BAY 41036 0800            78 83   70/ 14/ 16 1017.0S
WVE H/P(F/S)=  4/10 WND WVE H/P(F/S)=  3/ 5 SWL H/P/D(F/S/D)=  2/ 90/10

5 WRITEBCH 41038 0700            75 81   70/ 14/ 16   N/A
MASONBORO  41110 0800               81                N/A
WVE H/P(F/S)=  4/ 6 WND WVE H/P(F/S)=  3/ 6 SWL H/P/D(F/S/D)=  2/100/11

WILM HARBR 41108 0800               81                N/A
WVE H/P(F/S)=  4/ 5 WND WVE H/P(F/S)=  3/ 5

27WRITEBCH 41037 0700            75 81   90/ 16/ 17 1016.5S
FRYING PAN 41013 NOT AVBL
SUNST NRSH 41024 0700            76      60/ 14/ 16 1015.8F
CAPRS NRSH 41029 0700            79      90/ 10/ 12   N/A
EDISTO     41004 0800            80 83   70/  8/ 10 1014.5F
WVE H/P(F/S)=  3/ 7 WND WVE H/P(F/S)=  2/ 4 SWL H/P/D(F/S/D)=  3/ 7



..........OFFSHORE BUOYS BEYOND 100 NM OFFSHORE...........
.....IN A TRIANGLE---HAT TO BERMUDA TO BAHAMAS TO HAT.....


STATION/POSITION TIME  SKY/WX   TEMP    WIND        PRES    VSBY
                                AIR SEA DIR/SP/G
                 (UTC)          (F)     (DEG/KT/KT) (MB)    (MI)
150E HAT   41001 NOT AVBL
W BERMUDA  41048 0654            79 81   30/  6/  8 1014.0
WVE H/P(F/S)=  4/ 6 WND WVE H/P(F/S)=  2/ 3 SWL H/P/D(F/S/D)=  5/230/ 6

ATLANTIC S 41049 0746            83 85  180/ 12/ 14 1015.0F
WVE H/P(F/S)=  3/ 9 WND WVE H/P(F/S)=  2/ 5 SWL H/P/D(F/S/D)=  3/120/ 9

E BAHAMAS  41046 0651            83 84   90/  6/  8 1013.1
WVE H/P(F/S)=  3/ 8 WND WVE H/P(F/S)=  2/ 4 SWL H/P/D(F/S/D)=  2/ 80/ 8

NE BAHAMAS 41047 0727            78 83  270/ 12/ 14 1014.2F
WVE H/P(F/S)=  4/ 7 WND WVE H/P(F/S)=  2/ 5 SWL H/P/D(F/S/D)=  3/280/ 7

120E CANVRL41010 0800            82 85   70/  6/  8 1013.2F
WVE H/P(F/S)=  3/10 SWL H/P/D(F/S/D)=  3/ 60/10


END


USA.gov is the U.S. government's official web portal to all federal, state and local government web resources and services.